SONATE
1 44400U 19038Q 24109.46962776 .00030860 00000-0 10219-2 0 9998
2 44400 97.7125 101.0317 0015092 324.4906 35.5329 15.31145787264936
BeeSat 9
1 44412U 19038AC 24109.49913506 .00223294 00000-0 19853-2 0 9999
2 44412 97.6829 111.8206 0003259 232.0601 128.0365 15.67810814265391
JAISAT-1
1 44419U 19038F 24109.52369872 .00207217 00000-0 19439-2 0 9998
2 44419 97.6812 112.8597 0003006 230.9844 129.1148 15.66526251265771
Taurus 1
1 44530U 19059C 24109.81493121 .00014325 00000-0 33909-2 0 9996
2 44530 98.5678 228.4847 0012071 228.9623 131.0530 14.54121813243135
Duchifat 3
1 44854U 19089C 24109.22983082 .00025947 00000-0 13980-2 0 9992
2 44854 36.9588 52.4383 0009670 304.2628 55.7202 15.13988687239177
OPS-SAT
1 44878U 19092F 24109.50490096 .00218791 00000-0 15885-2 0 9998
2 44878 97.4455 312.6056 0003181 134.1718 225.9807 15.72731668241149
TO-108
1 44881U 19093C 24109.82594350 .00003289 00000-0 40559-3 0 9997
2 44881 97.8295 187.7585 0015204 152.4076 207.7948 14.83490796234248
FloripaSat 1
1 44885U 19093G 24109.84394476 .00012011 00000-0 12706-2 0 9995
2 44885 97.8408 192.9100 0013944 147.8153 212.3918 14.89261342234532
RS-44
1 44909U 19096E 24109.53767118 .00000026 00000-0 58600-4 0 9996
2 44909 82.5195 144.4137 0217338 190.3703 169.2879 12.79728508201340
BY70-2
1 45857U 20042B 24109.82968834 .00123993 00000-0 63889-2 0 9994
2 45857 97.9084 200.1827 0003244 70.8147 289.3435 15.15808519205518
UPMSat 2
1 46276U 20061E 24109.17073602 .00024768 00000-0 81570-3 0 9997
2 46276 97.3024 176.2044 0001191 65.1661 294.9704 15.31472370200980
AmicalSat
1 46287U 20061R 24109.14316265 .00047855 00000-0 15108-2 0 9996
2 46287 97.3545 176.5581 0003159 105.0602 255.0989 15.32681920200352
SALSAT
1 46495U 20068K 24109.40705477 .00011832 00000-0 69092-3 0 9998
2 46495 97.8113 67.2653 0015150 150.3870 209.8220 15.11985719195278
AO-109
1 47311U 21002C 24109.80933949 .01891463 32700-2 16856-2 0 9996
2 47311 60.6539 288.6266 0002487 303.5853 56.5039 16.13228895182018
ExoCube 2
1 47319U 21002L 24109.86750458 .00690725 20939-3 17928-2 0 9992
2 47319 60.6569 294.6139 0006075 99.3605 260.8203 15.94663403181879
UVSQ-SAT
1 47438U 21006AB 24109.70019596 .00060264 00000-0 14499-2 0 9995
2 47438 97.3341 169.6548 0007594 80.2430 279.9674 15.41059711179551
YUSAT 1
1 47439U 21006AC 24109.14801259 .00127234 00000-0 20156-2 0 9997
2 47439 97.3308 172.4199 0005135 78.4063 281.7766 15.52949561179689
SOMP 2b
1 47445U 21006AJ 24109.73141681 .00053061 00000-0 13685-2 0 9990
2 47445 97.3304 168.2433 0007909 86.9017 273.3134 15.38970854179498
IDEASSat
1 47458U 21006AX 24109.15889227 .00046488 00000-0 12835-2 0 9996
2 47458 97.3413 168.3308 0008049 90.1660 270.0507 15.36895214179359
CubeSX-Sirius-HSE
1 47951U 21022V 24109.83126356 .00030309 00000-0 12955-2 0 9992
2 47951 97.4670 8.4475 0014653 356.4069 3.7060 15.22701712169539
CubeSX-HSE
1 47952U 21022W 24109.85456100 .00030833 00000-0 13138-2 0 9994
2 47952 97.4672 8.5518 0014564 355.5067 4.6036 15.22804116169546
KSU-Cubesat
1 47954U 21022Y 24109.68328740 .00034772 00000-0 13835-2 0 9995
2 47954 97.4678 9.4531 0013406 352.7706 7.3336 15.25103522169305
GRBAlpha
1 47959U 21022AD 24109.82270539 .00031263 00000-0 13282-2 0 9996
2 47959 97.4672 8.6594 0014389 355.7019 4.4092 15.22903283168366
Orbicraft-Zorkiy
1 47960U 21022AE 24109.82161434 .00034750 00000-0 14043-2 0 9991
2 47960 97.4712 9.7397 0013584 353.2979 6.8075 15.24580217169100
STECCO
1 47962U 21022AG 24109.86000680 .00115082 00000-0 24074-2 0 9995
2 47962 97.4679 17.1476 0004073 332.8745 27.2290 15.45029532168928
MO-110
1 47964U 21022AJ 24109.53862391 .00129061 00000-0 24078-2 0 9992
2 47964 97.4695 18.2056 0004230 322.5418 37.5537 15.48312153168950
TUBIN
1 48900U 21059X 24109.83290060 .00025973 00000-0 95885-3 0 9996
2 48900 97.6369 252.8709 0006417 292.2345 67.8212 15.27722527155851
LEDSAT
1 49069U 21073D 24109.75250895 .00027931 00000-0 12057-2 0 9997
2 49069 97.4413 181.3738 0021562 132.3007 228.0061 15.22265975147400
CUTE
1 49263U 21088D 24109.75642536 .00026736 00000-0 13525-2 0 9999
2 49263 97.5021 176.2398 0013311 285.1006 74.8755 15.16926223140623
TeikyoSat 4
1 49396U 21102B 24109.57334542 .00004248 00000-0 31171-3 0 9990
2 49396 97.4668 156.6099 0015344 116.2628 244.0177 15.03908544133799
Z-Sat
1 49399U 21102E 24109.82225283 .00009509 00000-0 62411-3 0 9998
2 49399 97.4379 158.2691 0022191 101.6834 258.6886 15.07648838134040
KOSEN 1
1 49402U 21102H 24109.64671815 .00010357 00000-0 63049-3 0 9990
2 49402 97.4311 159.3366 0020970 88.3618 272.0014 15.10405656134154
HO-113
1 50466U 21131B 24109.83864022 .00001758 00000-0 57792-3 0 9992
2 50466 98.5272 195.1938 0003107 313.1005 46.9922 14.39495017121465
Tevel-3
1 50988U 22002E 24109.83000350 .00124798 00000-0 21180-2 0 9996
2 50988 97.3847 183.4379 0005387 208.3975 151.6984 15.51024386125807
Tevel-8
1 50989U 22002F 24109.80153647 .00125413 00000-0 21389-2 0 9998
2 50989 97.3870 183.4965 0005367 208.4538 151.6421 15.50883641125799
Tevel-5
1 50998U 22002Q 24109.80787638 .00146117 00000-0 22117-2 0 9995
2 50998 97.3838 184.4609 0005896 202.6010 157.4985 15.54139550125872
Tevel-6
1 50999U 22002R 24109.81104412 .00144787 00000-0 22007-2 0 9999
2 50999 97.3831 184.4405 0005847 202.0769 158.0234 15.54029831125875
Tevel-1
1 51013U 22002AF 24109.85461102 .00125785 00000-0 21450-2 0 9991
2 51013 97.3839 183.3379 0005351 205.4432 154.6557 15.50885617125804
IRIS-A
1 51044U 22002BN 24109.41659860 .00027916 00000-0 10026-2 0 9991
2 51044 97.3897 176.2434 0005766 231.9214 128.1507 15.28614574125287
Tevel-7
1 51062U 22002CG 24109.79301388 .00125966 00000-0 21397-2 0 9998
2 51062 97.3858 183.4626 0005375 205.2201 154.8789 15.50995195125793
Tevel-4
1 51063U 22002CH 24109.82303219 .00122683 00000-0 21061-2 0 9999
2 51063 97.3860 183.4136 0005429 205.6188 154.4796 15.50707838125790
Tevel-2
1 51069U 22002CP 24109.82871386 .00123622 00000-0 20958-2 0 9998
2 51069 97.3845 183.4043 0005364 207.4360 152.6609 15.51059027125802
SO-115
1 51080U 22002DA 24109.49749824 .00260430 00000-0 22714-2 0 9996
2 51080 97.4113 191.2983 0007638 231.6103 128.4473 15.68151303126094
SO-114
1 51081U 22002DB 24109.18030584 .00312329 00000-0 24991-2 0 9993
2 51081 97.4107 191.1861 0007522 233.5257 126.5312 15.70107805126064
OreSat0
1 52017U 22026K 24109.59116222 .00071807 00000-0 15280-2 0 9992
2 52017 97.5014 121.5510 0016579 80.3192 279.9928 15.44565601116482
Planetum 1
1 52738U 22057G 24109.30548131 .00054089 00000-0 15561-2 0 9998
2 52738 97.5584 233.5743 0004464 359.2449 0.8786 15.35592183105362
Foresail-1
1 52766U 22057AL 24109.30720459 .00030892 00000-0 10956-2 0 9993
2 52766 97.5734 233.5656 0009181 344.6472 15.4487 15.28983690105299
SNUGLITE 2
1 52899U 22065F 24109.87007797 .00003978 00000-0 82871-3 0 9995
2 52899 98.1099 252.2050 0007155 347.0888 13.0128 14.60510004 95609
IO-117
1 53106U 22080B 24108.26757684 -.00000003 00000-0 00000-0 0 9991
2 53106 70.1428 213.6795 0007982 119.5170 240.6286 6.42557181 41352
